Regional Weather Roundup
Issued by NWS

Home | Current Version | Previous Version | Text Only | Print | Product List | Glossary On
Versions: 1 2 3 4 5 6 7 8 9 10 11 12 13 14 15 16 17 18 19 20 21 22 23 24 25 26 27 28 29 30 31 32 33 34 35 36 37 38 39 40 41 42 43 44 45 46 47 48 49 50
000
ASUS43 KDTX 261710
RWRMI
MICHIGAN HOURLY REGIONAL WEATHER ROUNDUP
NATIONAL WEATHER SERVICE DETROIT/PONTIAC MI
100 PM EDT FRI AUG 26 2016

NOTE: "FAIR" INDICATES FEW OR NO CLOUDS BELOW 12,000 FEET WITH NO
SIGNIFICANT WEATHER AND/OR OBSTRUCTION TO VISIBILITY.

MIZ047>049-052>055-059>063-066>070-074>076-081>083-261800-
SOUTHEAST LOWER MICHIGAN

CITY           SKY/WX    TMP DP  RH WIND       PRES   REMARKS
ADRIAN         SUNNY     80  63  55 CALM      30.16F
ALMA           SUNNY     78  61  55 W10       30.15S
ANN ARBOR      PTSUNNY   80  63  55 VRB6      30.16S
BAD AXE        SUNNY     76  60  56 W5        30.14S
CARO           SUNNY     77  65  66 SW6       30.13F
DETROIT CITY   MOSUNNY   80  61  52 NW6       30.14F
DETROIT        PTSUNNY   80  62  54 W6        30.15F
FLINT          SUNNY     80  59  48 W7        30.15F
GROSSE ILE     SUNNY     80  64  59 S5        30.14F
HILLSDALE      SUNNY     78  62  59 CALM      30.17F
HOWELL         MOSUNNY   79  62  56 W8        30.17S

CITY           SKY/WX    TMP DP  RH WIND       PRES   REMARKS
JACKSON        SUNNY     77  62  59 SW6       30.17F
LAMBERTVILLE   SUNNY     82  63  52 SW6       30.16F
LANSING        SUNNY     77  60  55 W7        30.17S
LAPEER         FAIR      79  61  53 NW6       30.15F
MASON          SUNNY     78  62  58 W6        30.17S
MONROE         SUNNY     82  66  59 W8        30.14F
MT. CLEMENS    MOSUNNY   82  63  52 SW8       30.13S
PONTIAC        PTSUNNY   78  62  57 W10       30.15S
PORT HURON     SUNNY     79  64  61 W3        30.14S
TRI CITIES     SUNNY     76  61  59 SW9       30.14F
MIDLAND        FAIR      77  60  55 W9        30.12F
TROY           MOSUNNY   82  59  44 W9        30.16F
SAGINAW HB     SUNNY     79  61  53 W9        30.13F
$$
MIZ043>046-050>051-056>058-064>065-071>073-077>080-261800-
SOUTHWEST LOWER MICHIGAN

CITY           SKY/WX    TMP DP  RH WIND       PRES   REMARKS
BATTLE CREEK   SUNNY     76  64  66 SW7       30.18F
BENTON HARBOR  SUNNY     78  63  59 VRB6      30.17F
BIG RAPIDS     SUNNY     76  58  52 SW8       30.15F
COLDWATER      SUNNY     79  65  60 S3        30.17F
FREMONT        FAIR      75  52  44 W9        30.16F
HOLLAND        SUNNY     75  62  64 NW7       30.18F
GRAND RAPIDS   PTSUNNY   77  57  50 W9        30.17S
IONIA          FAIR      76  59  55 SW10      30.16S
KALAMAZOO      SUNNY     79  60  52 CALM      30.17F
LUDINGTON      SUNNY     71  58  65 W6        30.15F
MARSHALL       SUNNY     79  64  61 SW6       30.17F
MOUNT PLEASANT SUNNY     78  60  53 W6        30.14S
MUSKEGON       MOSUNNY   76  59  55 W8        30.17F
SOUTH HAVEN    SUNNY     78  64  63 N5        30.17F
$$
MIZ016>042-261800-
NORTHERN LOWER MICHIGAN

CITY           SKY/WX    TMP DP  RH WIND       PRES   REMARKS
ALPENA         PTSUNNY   75  55  49 W7        30.11F
BEAVER ISLAND  SUNNY     71  59  66 W9        30.13S
BELLAIRE       MOSUNNY   74  57  56 NW9       30.12F
CADILLAC       MOSUNNY   75  57  52 W8        30.14F
CHARLEVOIX     PTSUNNY   72  60  66 W13       30.16F
FRANKFORT      MOSUNNY   70  59  68 W7        30.15S
GAYLORD        PTSUNNY   72  53  51 NW9G18    30.14S
GRAYLING       MOSUNNY   76  57  51 W6        30.14F
HARBOR SPRINGS SUNNY     72  61  67 W8        30.12F
HOUGHTON LAKE  SUNNY     74  58  57 W8        30.15F
MANISTEE       MOSUNNY   71  60  68 W10       30.14F
OSCODA         SUNNY     78  57  48 W7        30.10F
PELLSTON       MOSUNNY   72  56  57 SW10      30.11F
ROGERS CITY    PTSUNNY   75  57  53 W9        30.11F
TRAVERSE CITY  PTSUNNY   75  54  47 W12       30.12S
$$
MIZ007>008-015-261800-
EASTERN UPPER MICHIGAN

CITY           SKY/WX    TMP DP  RH WIND       PRES   REMARKS
KINROSS        PTSUNNY   72  57  59 VRB7      30.09F
MACKINAC ISLAN MOSUNNY   69  58  68 SW8       30.11S
NEWBERRY       CLOUDY    69  58  67 W7        30.10F
S. S. MARIE    CLOUDY    71  59  65 W7        30.08S
MUNISING         N/A     66  60  81 N8        30.12R
$$
MIZ004>006-011>014-085-261800-
CENTRAL UPPER MICHIGAN

CITY           SKY/WX    TMP DP  RH WIND       PRES   REMARKS
MANISTIQUE     CLOUDY    68  60  75 S7        30.11S
ESCANABA       CLOUDY    69  59  70 SE8       30.11F
MENOMINEE        N/A    N/A N/A N/A SW6       30.13F
SAWYER-GWINN   DRIZZLE   59  57  94 N5        30.14S
$$
MIZ001>003-009>011-084-261800-
WESTERN UPPER MICHIGAN

CITY           SKY/WX    TMP DP  RH WIND       PRES   REMARKS
IRON MOUNTAIN  MOSUNNY   69  53  56 W9        30.13F
HOUGHTON       PTSUNNY   65  52  62 NW12      30.13S
COPPER HARBOR    N/A     63  55  75 NE7       30.13R
IRONWOOD       MOSUNNY   65  51  60 NW10      30.17S
$$

ABBREVIATIONS USED IN REMARKS
   TC - TEMPERATURE IN CELSIUS
  WCI - WIND CHILL INDEX
   HX - HEAT INDEX
  VSB - VISIBILITY





USA.gov is the U.S. government's official web portal to all federal, state and local government web resources and services.